Location: Maccacari
(45.1333°N, 11.1333°E)
Time: 20:27:47
(UTC+00:00)

Vanguard 2 - All Passes

Search period start: 21 January 2021 00:00
Search period end: 31 January 2021 00:00
Orbit: 553 x 2937 km, 32.9° (Epoch: 20 January)

Date Brightness Start Highest point End Pass type
(mag) Time Alt. Az. Time Alt. Az. Time Alt. Az.
21 Jan - 15:55:34 10° SSE 15:55:50 10° SSE 15:56:06 10° SSE daylight
21 Jan - 17:59:10 10° SW 18:03:02 24° S 18:08:15 10° ESE visible
21 Jan - 20:06:04 10° WSW 20:11:01 25° S 20:18:06 10° SE visible
21 Jan - 22:15:25 10° SW 22:19:49 15° SSW 22:25:13 10° S night (unlit)
22 Jan - 16:11:11 10° S 16:13:15 13° SSE 16:15:31 10° SE daylight
22 Jan - 18:16:42 10° SW 18:20:36 24° S 18:25:53 10° SE visible
22 Jan - 20:24:05 10° WSW 20:28:43 21° SSW 20:35:01 10° SSE visible
23 Jan - 16:28:07 10° SSW 16:30:42 16° SSE 16:33:40 10° SE daylight
23 Jan - 18:34:22 10° SW 18:38:12 22° S 18:43:21 10° SE visible
23 Jan - 20:42:26 10° SW 20:46:24 16° SSW 20:51:28 10° SSE visible
24 Jan - 16:45:22 10° SSW 16:48:12 18° S 16:51:32 10° SE visible
24 Jan - 18:52:10 10° SW 18:55:49 20° S 19:00:35 10° SE visible
24 Jan - 21:01:38 10° SW 21:04:05 12° SSW 21:06:54 10° S visible
25 Jan - 17:02:50 10° SW 17:05:45 18° S 17:09:12 10° SE visible
25 Jan - 19:10:14 10° SW 19:13:28 16° S 19:17:30 10° SSE visible
26 Jan - 15:14:13 10° SSW 15:15:56 12° SSE 15:17:41 10° SE daylight
26 Jan - 17:20:28 10° SW 17:23:19 18° S 17:26:41 10° SE visible
26 Jan - 19:28:46 10° SW 19:31:07 13° SSW 19:33:51 10° S visible
27 Jan - 15:31:14 10° SSW 15:33:27 14° S 15:35:45 10° SE daylight
27 Jan - 17:38:17 10° SW 17:40:54 16° S 17:43:56 10° SSE visible
28 Jan - 15:48:35 10° SW 15:50:59 15° S 15:53:29 10° SE daylight
28 Jan - 17:56:26 10° SW 17:58:29 13° S 18:00:48 10° SSE visible
29 Jan - 13:59:18 10° SSW 14:01:07 12° S 14:02:49 10° SE daylight
29 Jan - 16:06:09 10° SW 16:08:33 15° S 16:11:00 10° SE daylight
30 Jan - 14:16:12 10° SSW 14:18:41 15° S 14:20:58 10° SE daylight
30 Jan - 16:23:58 10° SW 16:26:05 14° S 16:28:17 10° SSE daylight
